| time (UTC) | temp F | wind direction | speed MPH | gust MPH | rain 1hr in | rain 24hr in | rain mn in | humidity % | barometer mb |
| 20260904045005 | 76 | 95 | 0.0 | 0.0 | 0.00 | 0.20 | 0.00 | 72 | 1012.9 |
| 20260904044006 | 76 | 95 | 0.0 | 0.0 | 0.00 | 0.20 | 0.00 | 73 | 1012.9 |
| 20260904043005 | 76 | 95 | 0.0 | 0.0 | 0.00 | 0.20 | 0.00 | 74 | 1013.0 |
| 20260904042005 | 76 | 95 | 0.0 | 1.0 | 0.00 | 0.20 | 0.00 | 74 | 1013.0 |
| 20260904041007 | 76 | 95 | 0.0 | 1.0 | 0.00 | 0.20 | 0.00 | 74 | 1012.9 |
| 20260904040005 | 76 | 95 | 0.0 | 1.0 | 0.00 | 0.20 | 0.00 | 75 | 1012.8 |
| 20260904035006 | 76 | 95 | 0.0 | 1.0 | 0.00 | 0.20 | 0.20 | 75 | 1012.9 |
| 20260904034005 | 76 | 95 | 0.0 | 2.0 | 0.00 | 0.20 | 0.20 | 74 | 1012.9 |
| 20260904033007 | 76 | 95 | 1.0 | 2.0 | 0.00 | 0.20 | 0.20 | 75 | 1012.9 |
| 20260904032007 | 76 | 105 | 1.0 | 2.0 | 0.00 | 0.20 | 0.20 | 75 | 1013.0 |
| 20260904025007 | 76 | 220 | 0.0 | 1.0 | 0.00 | 0.20 | 0.20 | 76 | 1013.3 |
| 20260904024007 | 76 | 220 | 0.0 | 1.0 | 0.00 | 0.20 | 0.20 | 76 | 1013.2 |
| 20260904023005 | 76 | 220 | 0.0 | 1.0 | 0.00 | 0.20 | 0.20 | 76 | 1013.1 |
| 20260904022006 | 76 | 111 | 0.0 | 2.0 | 0.00 | 0.20 | 0.20 | 77 | 1013.1 |
| 20260904021006 | 76 | 98 | 0.0 | 2.0 | 0.00 | 0.20 | 0.20 | 78 | 1013.1 |
| 20260904020006 | 76 | 161 | 1.0 | 1.0 | 0.00 | 0.20 | 0.20 | 78 | 1013.1 |
| 20260904015007 | 76 | 161 | 0.0 | 0.0 | 0.00 | 0.20 | 0.20 | 79 | 1013.1 |
| 20260904014007 | 77 | 161 | 0.0 | 0.0 | 0.00 | 0.20 | 0.20 | 80 | 1013.1 |
| 20260904013006 | 77 | 161 | 0.0 | 0.0 | 0.00 | 0.20 | 0.20 | 80 | 1013.1 |
| 20260904012005 | 77 | 161 | 0.0 | 0.0 | 0.00 | 0.20 | 0.20 | 80 | 1013.0 |
| 20260904011005 | 77 | 161 | 0.0 | 0.0 | 0.00 | 0.20 | 0.20 | 80 | 1012.9 |
| 20260904010005 | 77 | 161 | 0.0 | 0.0 | 0.00 | 0.20 | 0.20 | 82 | 1012.7 |
| 20260904005006 | 77 | 161 | 0.0 | 0.0 | 0.00 | 0.20 | 0.20 | 82 | 1012.7 |
| 20260904003005 | 78 | 161 | 0.0 | 0.0 | 0.00 | 0.20 | 0.20 | 82 | 1012.7 |
| 20260904002007 | 77 | 161 | 0.0 | 0.0 | 0.00 | 0.20 | 0.20 | 83 | 1012.9 |
| 20260904001005 | 78 | 161 | 0.0 | 1.0 | 0.00 | 0.20 | 0.20 | 83 | 1012.8 |
| 20260904000005 | 78 | 161 | 0.0 | 0.0 | 0.00 | 0.20 | 0.20 | 84 | 1012.8 |
| 20260903235005 | 78 | 161 | 0.0 | 1.0 | 0.00 | 0.20 | 0.20 | 84 | 1012.5 |
| 20260903234007 | 78 | 161 | 0.0 | 0.0 | 0.00 | 0.20 | 0.20 | 84 | 1012.4 |
| 20260903233006 | 78 | 161 | 0.0 | 0.0 | 0.00 | 0.20 | 0.20 | 84 | 1012.3 |
| 20260903232005 | 78 | 161 | 0.0 | 2.0 | 0.00 | 0.20 | 0.20 | 83 | 1012.5 |
| 20260903230006 | 79 | 239 | 1.0 | 2.0 | 0.00 | 0.20 | 0.20 | 83 | 1012.4 |
| 20260903225005 | 79 | 239 | 1.0 | 2.0 | 0.00 | 0.20 | 0.20 | 82 | 1012.3 |
| 20260903223006 | 81 | 184 | 1.0 | 6.0 | 0.00 | 0.20 | 0.20 | 79 | 1012.3 |
| 20260903221006 | 83 | 180 | 0.0 | 2.0 | 0.00 | 0.20 | 0.20 | 83 | 1012.1 |
| 20260903220006 | 83 | 103 | 0.0 | 3.0 | 0.00 | 0.20 | 0.20 | 82 | 1012.0 |
| 20260903215006 | 83 | 125 | 1.0 | 7.0 | 0.00 | 0.20 | 0.20 | 82 | 1011.9 |
| 20260903214006 | 83 | 84 | 3.0 | 12.0 | 0.00 | 0.20 | 0.20 | 81 | 1011.9 |
| 20260903213006 | 84 | 88 | 4.0 | 9.0 | 0.00 | 0.20 | 0.20 | 81 | 1011.9 |
| 20260903210006 | 83 | 92 | 5.0 | 12.0 | 0.00 | 0.20 | 0.20 | 82 | 1011.3 |
| 20260903205006 | 83 | 86 | 6.0 | 12.0 | 0.00 | 0.20 | 0.20 | 83 | 1011.0 |
| 20260903204005 | 83 | 86 | 6.0 | 12.0 | 0.00 | 0.20 | 0.20 | 83 | 1010.6 |
| 20260903203007 | 83 | 68 | 7.0 | 12.0 | 0.00 | 0.20 | 0.20 | 83 | 1011.0 |
| 20260903202006 | 83 | 85 | 4.0 | 12.0 | 0.00 | 0.20 | 0.20 | 83 | 1011.5 |
| 20260903201005 | 82 | 60 | 5.0 | 10.0 | 0.00 | 0.20 | 0.20 | 82 | 1011.7 |
| 20260903200005 | 82 | 59 | 4.0 | 12.0 | 0.00 | 0.20 | 0.20 | 80 | 1011.8 |
| 20260903195005 | 82 | 89 | 3.0 | 6.0 | 0.01 | 0.20 | 0.20 | 78 | 1011.7 |
| 20260903194005 | 81 | 84 | 3.0 | 6.0 | 0.01 | 0.20 | 0.20 | 76 | 1011.9 |
| 20260903193005 | 80 | 87 | 2.0 | 5.0 | 0.01 | 0.20 | 0.20 | 76 | 1012.1 |
| 20260903192005 | 80 | 82 | 3.0 | 7.0 | 0.02 | 0.20 | 0.20 | 77 | 1011.9 |
| 20260903191006 | 80 | 88 | 4.0 | 6.0 | 0.06 | 0.20 | 0.20 | 74 | 1012.0 |
| 20260903190005 | 80 | 97 | 3.0 | 5.0 | 0.13 | 0.20 | 0.20 | 73 | 1012.2 |
| 20260903184005 | 79 | 59 | 3.0 | 5.0 | 0.19 | 0.19 | 0.19 | 74 | 1012.2 |
| 20260903183006 | 80 | 109 | 1.0 | 5.0 | 0.19 | 0.19 | 0.19 | 73 | 1012.6 |
| 20260903181005 | 79 | 88 | 1.0 | 3.0 | 0.14 | 0.14 | 0.14 | 81 | 1012.8 |
| 20260903180005 | 80 | 136 | 1.0 | 3.0 | 0.07 | 0.07 | 0.07 | 83 | 1013.0 |
| 20260903174005 | 83 | 106 | 3.0 | 6.0 | 0.00 | 0.00 | 0.00 | 83 | 1013.2 |
| 20260903173006 | 85 | 68 | 4.0 | 9.0 | 0.00 | 0.00 | 0.00 | 78 | 1013.0 |
| 20260903172006 | 86 | 80 | 2.0 | 6.0 | 0.00 | 0.00 | 0.00 | 77 | 1012.8 |
| 20260903171005 | 86 | 36 | 3.0 | 10.0 | 0.00 | 0.00 | 0.00 | 78 | 1012.7 |
| 20260903165007 | 85 | 24 | 2.0 | 5.0 | 0.00 | 0.00 | 0.00 | 78 | 1013.3 |
| 20260903164006 | 85 | 31 | 3.0 | 7.0 | 0.00 | 0.00 | 0.00 | 78 | 1013.3 |
| 20260903163005 | 86 | 77 | 2.0 | 7.0 | 0.00 | 0.00 | 0.00 | 76 | 1013.3 |
| 20260903161006 | 90 | 17 | 0.0 | 3.0 | 0.00 | 0.00 | 0.00 | 68 | 1013.3 |
| 20260903160005 | 89 | 178 | 1.0 | 3.0 | 0.00 | 0.00 | 0.00 | 68 | 1013.5 |
| 20260903155005 | 89 | 232 | 0.0 | 3.0 | 0.00 | 0.00 | 0.00 | 71 | 1013.5 |
| 20260903152006 | 88 | 225 | 2.0 | 3.0 | 0.00 | 0.00 | 0.00 | 71 | 1013.8 |
| 20260903151005 | 88 | 213 | 2.0 | 5.0 | 0.00 | 0.00 | 0.00 | 70 | 1013.8 |
| 20260903150005 | 87 | 223 | 2.0 | 7.0 | 0.00 | 0.00 | 0.00 | 73 | 1013.7 |
| 20260903145005 | 87 | 128 | 2.0 | 7.0 | 0.00 | 0.00 | 0.00 | 74 | 1013.7 |
| 20260903143006 | 86 | 176 | 3.0 | 7.0 | 0.00 | 0.00 | 0.00 | 75 | 1013.5 |
| 20260903142006 | 85 | 233 | 2.0 | 7.0 | 0.00 | 0.00 | 0.00 | 76 | 1013.5 |
| 20260903141005 | 86 | 222 | 2.0 | 3.0 | 0.00 | 0.00 | 0.00 | 74 | 1013.5 |
| 20260903140006 | 86 | 189 | 1.0 | 3.0 | 0.00 | 0.00 | 0.00 | 75 | 1013.3 |
| 20260903135007 | 85 | 238 | 1.0 | 5.0 | 0.00 | 0.00 | 0.00 | 75 | 1013.4 |
| 20260903133005 | 85 | 196 | 1.0 | 3.0 | 0.00 | 0.00 | 0.00 | 79 | 1013.3 |
| 20260903131006 | 81 | 182 | 2.0 | 3.0 | 0.00 | 0.00 | 0.00 | 83 | 1013.1 |
| 20260903130006 | 81 | 210 | 2.0 | 3.0 | 0.00 | 0.00 | 0.00 | 83 | 1013.2 |
| 20260903125005 | 81 | 168 | 1.0 | 2.0 | 0.00 | 0.00 | 0.00 | 82 | 1013.2 |
| 20260903124007 | 80 | 121 | 1.0 | 2.0 | 0.00 | 0.00 | 0.00 | 68 | 1013.1 |
| 20260903122005 | 77 | 138 | 0.0 | 1.0 | 0.00 | 0.00 | 0.00 | 66 | 1013.1 |
| 20260903121005 | 77 | 138 | 0.0 | 1.0 | 0.00 | 0.00 | 0.00 | 66 | 1013.1 |
| 20260903120005 | 76 | 138 | 0.0 | 0.0 | 0.00 | 0.00 | 0.00 | 67 | 1013.1 |
| 20260903115007 | 76 | 138 | 0.0 | 0.0 | 0.00 | 0.00 | 0.00 | 67 | 1013.0 |
| 20260903114005 | 76 | 138 | 0.0 | 2.0 | 0.00 | 0.00 | 0.00 | 68 | 1012.9 |
| 20260903113006 | 75 | 177 | 0.0 | 1.0 | 0.00 | 0.00 | 0.00 | 68 | 1012.7 |
| 20260903112006 | 75 | 155 | 0.0 | 1.0 | 0.00 | 0.00 | 0.00 | 69 | 1012.2 |
| 20260903111006 | 75 | 184 | 0.0 | 2.0 | 0.00 | 0.00 | 0.00 | 69 | 1012.0 |
| 20260903110005 | 76 | 184 | 0.0 | 0.0 | 0.00 | 0.00 | 0.00 | 69 | 1012.0 |
| 20260903105005 | 76 | 184 | 0.0 | 1.0 | 0.00 | 0.00 | 0.00 | 69 | 1011.8 |
| 20260903103005 | 76 | 184 | 0.0 | 0.0 | 0.00 | 0.00 | 0.00 | 69 | 1011.6 |
| 20260903102005 | 76 | 184 | 0.0 | 0.0 | 0.00 | 0.00 | 0.00 | 68 | 1011.6 |
| 20260903101007 | 76 | 184 | 0.0 | 0.0 | 0.00 | 0.00 | 0.00 | 68 | 1011.5 |
| 20260903093006 | 77 | 184 | 0.0 | 0.0 | 0.00 | 0.00 | 0.00 | 68 | 1011.4 |
| 20260903092005 | 77 | 184 | 0.0 | 1.0 | 0.00 | 0.00 | 0.00 | 68 | 1011.5 |
| 20260903091005 | 77 | 184 | 0.0 | 2.0 | 0.00 | 0.00 | 0.00 | 68 | 1011.3 |
| 20260903090005 | 77 | 221 | 1.0 | 2.0 | 0.00 | 0.00 | 0.00 | 67 | 1011.3 |
| 20260903085005 | 77 | 148 | 1.0 | 2.0 | 0.00 | 0.00 | 0.00 | 68 | 1011.3 |
| 20260903084007 | 77 | 202 | 0.0 | 1.0 | 0.00 | 0.00 | 0.00 | 68 | 1011.3 |
| 20260903083006 | 77 | 202 | 1.0 | 2.0 | 0.00 | 0.00 | 0.00 | 69 | 1011.3 |
| 20260903082005 | 77 | 101 | 0.0 | 0.0 | 0.00 | 0.00 | 0.00 | 69 | 1011.3 |
| 20260903080006 | 77 | 101 | 0.0 | 0.0 | 0.00 | 0.00 | 0.00 | 70 | 1011.3 |
| 20260903075007 | 77 | 101 | 0.0 | 0.0 | 0.00 | 0.00 | 0.00 | 69 | 1011.1 |
| 20260903074006 | 77 | 101 | 0.0 | 1.0 | 0.00 | 0.00 | 0.00 | 69 | 1011.2 |
| 20260903073005 | 77 | 101 | 0.0 | 0.0 | 0.00 | 0.00 | 0.00 | 69 | 1011.1 |
| 20260903072007 | 77 | 101 | 0.0 | 2.0 | 0.00 | 0.00 | 0.00 | 69 | 1011.0 |
| 20260903071007 | 77 | 155 | 1.0 | 1.0 | 0.00 | 0.00 | 0.00 | 68 | 1011.1 |
| 20260903070005 | 77 | 71 | 0.0 | 0.0 | 0.00 | 0.00 | 0.00 | 69 | 1011.2 |
| 20260903065007 | 77 | 71 | 0.0 | 0.0 | 0.00 | 0.00 | 0.00 | 69 | 1011.3 |
| 20260903064007 | 77 | 71 | 0.0 | 0.0 | 0.00 | 0.00 | 0.00 | 70 | 1011.4 |
| 20260903063005 | 77 | 71 | 0.0 | 0.0 | 0.00 | 0.00 | 0.00 | 70 | 1011.5 |
| 20260903062005 | 77 | 71 | 0.0 | 0.0 | 0.00 | 0.00 | 0.00 | 71 | 1011.7 |
| 20260903061006 | 77 | 71 | 0.0 | 1.0 | 0.00 | 0.00 | 0.00 | 71 | 1011.8 |
| 20260903060005 | 77 | 71 | 1.0 | 1.0 | 0.00 | 0.00 | 0.00 | 71 | 1012.0 |
| 20260903055005 | 77 | 71 | 0.0 | 1.0 | 0.00 | 0.00 | 0.00 | 71 | 1012.1 |
| 20260903054006 | 77 | 71 | 0.0 | 0.0 | 0.00 | 0.00 | 0.00 | 71 | 1012.2 |
| 20260903053006 | 78 | 71 | 0.0 | 1.0 | 0.00 | 0.00 | 0.00 | 72 | 1012.3 |
| 20260903051005 | 78 | 71 | 0.0 | 1.0 | 0.00 | 0.00 | 0.00 | 72 | 1012.4 |
| 20260903050006 | 78 | 71 | 0.0 | 1.0 | 0.00 | 0.00 | 0.00 | 72 | 1012.6 |